Regional Weather Roundup
Issued by NWS

Home | Current Version | Previous Version | Text Only | Print | Product List | Glossary Off
Versions: 1 2 3 4 5 6 7 8 9 10 11 12 13 14 15 16 17 18 19 20 21 22 23 24 25 26 27 28 29 30 31 32 33 34 35 36 37 38 39 40 41 42 43 44 45 46 47 48 49 50

945
ASUS45 KBOU 191007
RWRCO

WEATHER ROUNDUP FOR COLORADO
NATIONAL WEATHER SERVICE DENVER/BOULDER CO
300 AM MST SUN FEB 19 2017

NOTE: "FAIR" INDICATES FEW OR NO CLOUDS BELOW 12000 FEET WITH NO
SIGNIFICANT WEATHER AND/OR OBSTRUCTIONS TO VISIBILITY.

COZ001>005-013-030-031-191100-
...NORTHWEST COLORADO...

CITY           SKY/WX    TMP DP  RH WIND       PRES   REMARKS
CRAIG          MOCLDY    25  23  92 CALM      29.75F
HAYDEN         FAIR      30  25  80 E9        29.75F WCI  22
MEEKER         CLOUDY    29  27  92 CALM      29.75F
MOUNT WERNER   NOT AVBL
STEAMBOAT SPGS NOT AVBL
WALDEN         NOT AVBL
$$

COZ006>008-011-191100-
...WEST CENTRAL VALLEYS...

CITY           SKY/WX    TMP DP  RH WIND       PRES   REMARKS
GRAND JUNCTION MOCLDY    38  37  97 CALM      29.74R
MONTROSE       FAIR      33  31  92 S8        29.77F WCI  26
EAGLE          FAIR      29  27  92 E6        29.80S WCI  23
RIFLE          FAIR      31  29  92 CALM      29.76S
DELTA          FAIR      37  34  88 N3        29.76F
NUCLA          FAIR      36  32  87 SE9       29.78S
$$

COZ017>023-064>068-191100-
...SOUTHWEST COLORADO...

CITY           SKY/WX    TMP DP  RH WIND       PRES   REMARKS
DURANGO        CLOUDY    36  28  73 SE5       29.80F
CORTEZ         CLOUDY    46  28  49 E7        29.74F
PAGOSA SPRINGS CLOUDY    36  28  72 CALM      29.84F
TELLURIDE      MOCLDY    37  20  51 E5        29.84R
WOLF CREEK PAS FAIR      21  21 100 S20G29    29.95F WCI   6
$$

COZ009-010-012-014-032>034-037-058>063-191100-
...CENTRAL COLORADO...

CITY           SKY/WX    TMP DP  RH WIND       PRES   REMARKS
ASPEN          FAIR      28  25  88 CALM      29.77S
BUENA VISTA    FAIR      39  28  65 S5        29.79S
COPPER MTN     FAIR      30  14  51 S18       29.87F WCI  18
BERTHOUD PASS  FAIR      21  12  68 W18       29.86F WCI   6
COTTONWOOD PAS FAIR      37  21  52 CALM      29.84F
GUNNISON       FAIR      22  20  92 SW3       29.82F
KREMMLING      FAIR      32  28  86 CALM      29.80S
LEADVILLE      FAIR      29  15  56 SE5       29.82S WCI  24
MONARCH PASS   FAIR      27  19  74 S29       30.00F WCI  11
SALIDA         FAIR      45  29  54 SW13G30   29.87S
SUNLIGHT       NOT AVBL
WILKERSON PASS FAIR      28  23  80 SW21G35   29.87F WCI  15
$$

COZ069>075-191100-
...SAN LUIS VALLEY/SANGRE DE CRISTO MOUNTAINS...

CITY           SKY/WX    TMP DP  RH WIND       PRES   REMARKS
ALAMOSA        FAIR      32  25  75 SE12      29.83S WCI  23
LA VETA PASS   FAIR      30  23  74 NE22G38   29.86S WCI  17
SAGUACHE       FAIR      30  27  86 NE3       29.86R
$$

COZ035-036-038>040-191100-
...NORTHERN COLORADO FRONT RANGE...

CITY           SKY/WX    TMP DP  RH WIND       PRES   REMARKS
DENVER INTL AP FAIR      39  21  48 SW7       29.65F
DMNS CITY PARK   N/A     43  23  45 SE10      29.65S
AURORA         PTCLDY    43  22  44 S13       29.66F
FRONT RANGE AP FAIR      45  25  45 S16       29.66F
ERIE MUNI ARPT FAIR      32  24  72 SE3       29.65F
BOULDER MUN AP FAIR      37  25  60 CALM      29.65F
CENTENNIAL     FAIR      41  23  48 SE8       29.67S
BROOMFIELD     FAIR      45  21  39 E5        29.66F
FORT COLLINS   FAIR      37  25  61 CALM      29.65F
LONGMONT       FAIR      36  25  65 CALM      29.67F
$$

COZ041-046-047-076>085-087-088-191100-
...PIKES PEAK/PALMER DIVIDE AND SOUTHERN FOOTHILLS...

CITY           SKY/WX    TMP DP  RH WIND       PRES   REMARKS
COLO. SPRINGS  FAIR      33  20  58 E7        29.74R WCI  27
A. F. ACADEMY  FAIR      28  20  70 N9        29.73S WCI  20
SCHRIEVER AFB  FAIR      37  22  56 N3        29.74S
ELLICOTT       FAIR     N/A N/A N/A SE13      29.72S
FALCON         NOT AVBL
FORT CARSON    FAIR      37  22  54 N7        29.71S
LIMON          FAIR      42  27  55 S12G24    29.71F
MONUMENT HILL  FAIR      32  21  64 S10       29.75R WCI  24
TRINIDAD       FAIR      49  28  44 W15       29.74F
$$

COZ042>045-048>051-090-091-191100-
...NORTHEAST COLORADO...

CITY           SKY/WX    TMP DP  RH WIND       PRES   REMARKS
GREELEY ARPT   FAIR      35  22  58 NW9       29.65F WCI  28
AKRON          FAIR      47  26  44 S13       29.64F
BURLINGTON     FAIR      50  34  54 S24       29.70S
WRAY           NOT AVBL
STERLING       FAIR      37  27  65 SW3       29.62F
HOLYOKE        FAIR      52  32  46 S14       29.65F
FORT MORGAN    FAIR      38  22  51 SW7       29.66R
$$

COZ086-089-092>099-191100-
...SOUTHEAST COLORADO...

CITY           SKY/WX    TMP DP  RH WIND       PRES   REMARKS
PUEBLO         FAIR      31  22  69 CALM      29.68F
LA JUNTA       FAIR      50  30  46 S10       29.71F
LAMAR          FAIR      46  33  60 S9        29.72S
SPRINGFIELD      N/A     47  36  65 SW13G23   29.74F
$$




USA.gov is the U.S. government's official web portal to all federal, state and local government web resources and services.